Cosmos 2297 - Orbit

View from above orbital plane
View from above orbital plane
View from above satellite
View from above satellite

Ground track
Ground track

The orbit data is extracted from the following two-line orbital elements,

1 23404U 94077A   13169.15164528 -.00000212  00000-0 -87398-4 0  5141
2 23404 071.0162 109.0093 0016175 216.6110 237.4095 14.13336377957774
Epoch (UTC): 18 June 2013 03:38:22
Eccentricity: 0.0016175
inclination: 71.0162°
perigee height: 836 km
apogee height: 859 km
right ascension of ascending node: 109.0093°
argument of perigee: 216.6110°
revolutions per day: 14.13336377
mean anomaly at epoch: 237.4095°
orbit number at epoch: 95777

The dashed part of the orbit path shows where the satellite is in the earth's shadow,  

Developed and maintained by Chris Peat, Heavens-Above GmbH. Please read the updated FAQ before sending e-mail. Imprint. DLR